Time,TemperatureF,DewpointF,PressureIn,WindDirection,WindDirectionDegrees,WindSpeedMPH,WindSpeedGustMPH,Humidity,HourlyPrecipIn,Conditions,Clouds,dailyrainin,SolarRadiationWatts/m^2,SoftwareType,DateUTC
2013-07-26 00:00:00,81.6,64.9,29.99,West,267,0.0,5.0,57,0.00,,---,0.00,0.00,VWS V14.00,2013-07-26 04:00:00,
2013-07-26 00:01:00,81.5,64.8,29.99,West,263,0.0,0.0,57,0.00,,---,0.00,0.00,VWS V14.00,2013-07-26 04:01:00,
2013-07-26 00:06:00,81.4,64.2,29.99,West,263,0.0,0.0,56,0.00,,---,0.00,0.00,VWS V14.00,2013-07-26 04:06:00,
2013-07-26 00:11:00,81.3,64.1,29.99,West,263,0.0,0.0,56,0.00,,---,0.00,0.00,VWS V14.00,2013-07-26 04:11:00,
2013-07-26 00:17:00,81.2,64.0,29.99,West,263,0.0,0.0,56,0.00,,---,0.00,0.00,VWS V14.00,2013-07-26 04:17:00,
2013-07-26 00:22:00,81.1,63.4,29.99,West,263,0.0,0.0,55,0.00,,---,0.00,0.00,VWS V14.00,2013-07-26 04:22:00,
2013-07-26 00:26:00,81.0,63.3,29.99,WSW,254,0.0,1.0,55,0.00,,---,0.00,0.00,VWS V14.00,2013-07-26 04:26:00,
2013-07-26 00:30:00,81.0,63.3,29.99,WSW,254,0.0,1.0,55,0.00,,---,0.00,0.00,VWS V14.00,2013-07-26 04:30:00,
2013-07-26 00:32:00,80.9,62.7,29.99,WSW,254,0.0,0.0,54,0.00,,---,0.00,0.00,VWS V14.00,2013-07-26 04:32:00,
2013-07-26 00:37:00,80.9,62.7,29.99,WSW,254,0.0,0.0,54,0.00,,---,0.00,0.00,VWS V14.00,2013-07-26 04:37:00,
2013-07-26 00:42:00,80.7,62.5,29.99,WSW,254,0.0,0.0,54,0.00,,---,0.00,0.00,VWS V14.00,2013-07-26 04:42:00,
2013-07-26 00:47:00,80.7,62.5,29.99,WSW,254,0.0,0.0,54,0.00,,---,0.00,0.00,VWS V14.00,2013-07-26 04:47:00,
2013-07-26 00:52:00,80.6,61.9,29.99,WSW,254,0.0,0.0,53,0.00,,---,0.00,0.00,VWS V14.00,2013-07-26 04:52:00,
2013-07-26 00:57:00,80.5,61.8,29.99,WSW,254,0.0,0.0,53,0.00,,---,0.00,0.00,VWS V14.00,2013-07-26 04:57:00,
2013-07-26 01:00:00,80.5,61.8,29.99,WSW,254,0.0,0.0,53,0.00,,---,0.00,0.00,VWS V14.00,2013-07-26 05:00:00,
2013-07-26 01:02:00,80.3,61.6,29.99,WSW,254,0.0,0.0,53,0.00,,---,0.00,0.00,VWS V14.00,2013-07-26 05:02:00,
2013-07-26 01:07:00,80.2,61.0,29.99,WSW,254,0.0,0.0,52,0.00,,---,0.00,0.00,VWS V14.00,2013-07-26 05:07:00,
2013-07-26 01:12:00,80.1,60.9,29.98,WSW,254,0.0,0.0,52,0.00,,---,0.00,0.00,VWS V14.00,2013-07-26 05:12:00,
2013-07-26 01:17:00,80.0,60.8,29.98,WSW,254,0.0,0.0,52,0.00,,---,0.00,0.00,VWS V14.00,2013-07-26 05:17:00,
2013-07-26 01:22:00,79.9,60.2,29.98,WSW,254,0.0,0.0,51,0.00,,---,0.00,0.00,VWS V14.00,2013-07-26 05:22:00,
2013-07-26 01:27:00,79.8,60.1,29.98,WSW,254,0.0,0.0,51,0.00,,---,0.00,0.00,VWS V14.00,2013-07-26 05:27:00,
2013-07-26 01:30:00,79.8,60.1,29.98,WSW,254,0.0,0.0,51,0.00,,---,0.00,0.00,VWS V14.00,2013-07-26 05:30:00,
2013-07-26 01:32:00,79.7,60.0,29.98,WSW,254,0.0,0.0,51,0.00,,---,0.00,0.00,VWS V14.00,2013-07-26 05:32:00,
2013-07-26 01:37:00,79.6,59.3,29.98,WSW,254,0.0,0.0,50,0.00,,---,0.00,0.00,VWS V14.00,2013-07-26 05:37:00,
2013-07-26 01:42:00,79.4,59.2,29.98,WSW,254,0.0,0.0,50,0.00,,---,0.00,0.00,VWS V14.00,2013-07-26 05:42:00,
2013-07-26 01:47:00,79.3,59.1,29.98,WSW,254,0.0,0.0,50,0.00,,---,0.00,0.00,VWS V14.00,2013-07-26 05:47:00,
2013-07-26 01:52:00,79.2,59.0,29.98,WSW,254,0.0,0.0,50,0.00,,---,0.00,0.00,VWS V14.00,2013-07-26 05:52:00,
2013-07-26 01:57:00,79.1,58.3,29.97,WSW,254,0.0,0.0,49,0.00,,---,0.00,0.00,VWS V14.00,2013-07-26 05:57:00,
2013-07-26 02:00:00,79.1,58.3,29.97,WSW,254,0.0,0.0,49,0.00,,---,0.00,0.00,VWS V14.00,2013-07-26 06:00:00,
2013-07-26 02:02:00,79.1,58.3,29.97,WSW,254,0.0,0.0,49,0.00,,---,0.00,0.00,VWS V14.00,2013-07-26 06:02:00,
2013-07-26 02:07:00,79.0,57.7,29.97,WSW,254,0.0,0.0,48,0.00,,---,0.00,0.00,VWS V14.00,2013-07-26 06:07:00,
2013-07-26 02:12:00,78.9,57.6,29.97,WSW,254,0.0,0.0,48,0.00,,---,0.00,0.00,VWS V14.00,2013-07-26 06:12:00,
2013-07-26 02:17:00,78.8,56.9,29.97,WSW,254,0.0,0.0,47,0.00,,---,0.00,0.00,VWS V14.00,2013-07-26 06:17:00,
2013-07-26 02:22:00,78.7,56.8,29.97,WSW,254,0.0,0.0,47,0.00,,---,0.00,0.00,VWS V14.00,2013-07-26 06:22:00,
2013-07-26 02:27:00,78.7,56.2,29.97,WSW,254,0.0,0.0,46,0.00,,---,0.00,0.00,VWS V14.00,2013-07-26 06:27:00,
2013-07-26 02:30:00,78.7,56.2,29.97,WSW,254,0.0,0.0,46,0.00,,---,0.00,0.00,VWS V14.00,2013-07-26 06:30:00,
2013-07-26 02:32:00,78.7,56.2,29.97,WSW,254,0.0,0.0,46,0.00,,---,0.00,0.00,VWS V14.00,2013-07-26 06:32:00,
2013-07-26 02:37:00,78.7,56.2,29.97,WSW,254,0.0,0.0,46,0.00,,---,0.00,0.00,VWS V14.00,2013-07-26 06:37:00,
2013-07-26 02:42:00,78.5,56.0,29.97,WSW,254,0.0,0.0,46,0.00,,---,0.00,0.00,VWS V14.00,2013-07-26 06:42:00,
2013-07-26 02:47:00,78.4,55.9,29.97,WSW,254,0.0,0.0,46,0.00,,---,0.00,0.00,VWS V14.00,2013-07-26 06:47:00,
2013-07-26 02:52:00,78.3,55.2,29.97,WSW,254,0.0,0.0,45,0.00,,---,0.00,0.00,VWS V14.00,2013-07-26 06:52:00,
2013-07-26 02:57:00,78.3,55.2,29.97,WSW,254,0.0,0.0,45,0.00,,---,0.00,0.00,VWS V14.00,2013-07-26 06:57:00,
2013-07-26 03:00:00,78.3,55.2,29.97,WSW,254,0.0,0.0,45,0.00,,---,0.00,0.00,VWS V14.00,2013-07-26 07:00:00,
2013-07-26 03:02:00,78.2,54.5,29.97,WSW,254,0.0,0.0,44,0.00,,---,0.00,0.00,VWS V14.00,2013-07-26 07:02:00,
2013-07-26 03:07:00,78.1,54.4,29.97,WSW,254,0.0,0.0,44,0.00,,---,0.00,0.00,VWS V14.00,2013-07-26 07:07:00,
2013-07-26 03:12:00,78.0,54.3,29.97,WSW,254,0.0,0.0,44,0.00,,---,0.00,0.00,VWS V14.00,2013-07-26 07:12:00,
2013-07-26 03:17:00,77.9,54.3,29.97,WSW,254,0.0,0.0,44,0.00,,---,0.00,0.00,VWS V14.00,2013-07-26 07:17:00,
2013-07-26 03:22:00,77.7,54.1,29.97,WSW,254,0.0,0.0,44,0.00,,---,0.00,0.00,VWS V14.00,2013-07-26 07:22:00,
2013-07-26 03:27:00,77.6,54.0,29.97,WSW,254,0.0,0.0,44,0.00,,---,0.00,0.00,VWS V14.00,2013-07-26 07:27:00,
2013-07-26 03:30:00,77.6,54.0,29.97,WSW,254,0.0,0.0,44,0.00,,---,0.00,0.00,VWS V14.00,2013-07-26 07:30:00,
2013-07-26 03:32:00,77.5,53.9,29.97,WSW,254,0.0,0.0,44,0.00,,---,0.00,0.00,VWS V14.00,2013-07-26 07:32:00,
2013-07-26 03:37:00,77.5,53.9,29.97,WSW,254,0.0,0.0,44,0.00,,---,0.00,0.00,VWS V14.00,2013-07-26 07:37:00,
2013-07-26 03:42:00,77.4,53.2,29.96,WSW,254,0.0,0.0,43,0.00,,---,0.00,0.00,VWS V14.00,2013-07-26 07:42:00,
2013-07-26 03:47:00,77.4,53.2,29.96,WSW,254,0.0,0.0,43,0.00,,---,0.00,0.00,VWS V14.00,2013-07-26 07:47:00,
2013-07-26 03:52:00,77.3,53.1,29.96,WSW,254,0.0,0.0,43,0.00,,---,0.00,0.00,VWS V14.00,2013-07-26 07:52:00,
2013-07-26 03:57:00,77.2,53.0,29.96,WSW,254,0.0,0.0,43,0.00,,---,0.00,0.00,VWS V14.00,2013-07-26 07:57:00,
2013-07-26 04:00:00,77.2,53.0,29.96,WSW,254,0.0,0.0,43,0.00,,---,0.00,0.00,VWS V14.00,2013-07-26 08:00:00,
2013-07-26 04:02:00,77.1,52.9,29.96,WSW,254,0.0,0.0,43,0.00,,---,0.00,0.00,VWS V14.00,2013-07-26 08:02:00,
2013-07-26 04:07:00,77.1,52.3,29.96,WSW,254,0.0,0.0,42,0.00,,---,0.00,0.00,VWS V14.00,2013-07-26 08:07:00,
2013-07-26 04:12:00,77.1,52.3,29.96,WSW,254,0.0,0.0,42,0.00,,---,0.00,0.00,VWS V14.00,2013-07-26 08:12:00,
2013-07-26 04:17:00,77.0,52.2,29.95,WSW,254,0.0,0.0,42,0.00,,---,0.00,0.00,VWS V14.00,2013-07-26 08:17:00,
2013-07-26 04:22:00,76.9,52.1,29.95,WSW,254,0.0,0.0,42,0.00,,---,0.00,0.00,VWS V14.00,2013-07-26 08:22:00,
2013-07-26 04:27:00,76.9,52.1,29.95,WSW,254,0.0,0.0,42,0.00,,---,0.00,0.00,VWS V14.00,2013-07-26 08:27:00,
2013-07-26 04:30:00,76.9,52.1,29.95,WSW,254,0.0,0.0,42,0.00,,---,0.00,0.00,VWS V14.00,2013-07-26 08:30:00,
2013-07-26 04:32:00,76.8,51.3,29.95,WSW,254,0.0,0.0,41,0.00,,---,0.00,0.00,VWS V14.00,2013-07-26 08:32:00,
2013-07-26 04:37:00,76.9,51.4,29.95,WSW,254,0.0,0.0,41,0.00,,---,0.00,0.00,VWS V14.00,2013-07-26 08:37:00,
2013-07-26 04:42:00,76.9,51.4,29.95,WSW,254,0.0,0.0,41,0.00,,---,0.00,0.00,VWS V14.00,2013-07-26 08:42:00,
2013-07-26 04:47:00,76.9,51.4,29.95,WSW,254,0.0,0.0,41,0.00,,---,0.00,0.00,VWS V14.00,2013-07-26 08:47:00,
2013-07-26 04:52:00,76.8,50.7,29.95,WSW,254,0.0,0.0,40,0.00,,---,0.00,0.00,VWS V14.00,2013-07-26 08:52:00,
2013-07-26 04:57:00,76.8,50.7,29.95,WSW,254,0.0,0.0,40,0.00,,---,0.00,0.00,VWS V14.00,2013-07-26 08:57:00,
2013-07-26 05:00:00,76.8,50.7,29.95,WSW,254,0.0,0.0,40,0.00,,---,0.00,0.00,VWS V14.00,2013-07-26 09:00:00,
2013-07-26 05:02:00,76.7,50.6,29.95,WSW,254,0.0,0.0,40,0.00,,---,0.00,0.00,VWS V14.00,2013-07-26 09:02:00,
2013-07-26 05:07:00,76.7,50.6,29.95,WSW,254,0.0,0.0,40,0.00,,---,0.00,0.00,VWS V14.00,2013-07-26 09:07:00,
2013-07-26 05:12:00,76.7,49.9,29.96,WSW,254,0.0,0.0,39,0.00,,---,0.00,0.00,VWS V14.00,2013-07-26 09:12:00,
2013-07-26 05:17:00,76.7,49.9,29.96,WSW,254,0.0,0.0,39,0.00,,---,0.00,0.00,VWS V14.00,2013-07-26 09:17:00,
2013-07-26 05:23:00,76.7,49.9,29.96,WSW,254,0.0,0.0,39,0.00,,---,0.00,0.00,VWS V14.00,2013-07-26 09:23:00,
2013-07-26 05:28:00,76.8,50.0,29.96,WSW,254,0.0,0.0,39,0.00,,---,0.00,0.00,VWS V14.00,2013-07-26 09:28:00,
2013-07-26 05:30:00,76.8,50.0,29.96,WSW,254,0.0,0.0,39,0.00,,---,0.00,0.00,VWS V14.00,2013-07-26 09:30:00,
2013-07-26 05:33:00,76.8,49.3,29.96,WSW,254,0.0,0.0,38,0.00,,---,0.00,0.00,VWS V14.00,2013-07-26 09:33:00,
2013-07-26 05:38:00,76.9,49.4,29.96,WSW,254,0.0,0.0,38,0.00,,---,0.00,0.00,VWS V14.00,2013-07-26 09:38:00,
2013-07-26 05:43:00,77.0,49.5,29.97,WSW,254,0.0,0.0,38,0.00,,---,0.00,0.00,VWS V14.00,2013-07-26 09:43:00,
2013-07-26 05:48:00,77.0,48.8,29.97,WSW,254,0.0,0.0,37,0.00,,---,0.00,0.00,VWS V14.00,2013-07-26 09:48:00,
2013-07-26 05:53:00,77.0,48.8,29.97,WSW,254,0.0,0.0,37,0.00,,---,0.00,0.00,VWS V14.00,2013-07-26 09:53:00,
2013-07-26 05:58:00,76.9,48.7,29.97,WSW,254,0.0,0.0,37,0.00,,---,0.00,0.00,VWS V14.00,2013-07-26 09:58:00,
2013-07-26 06:00:00,77.0,48.8,29.97,WSW,254,0.0,0.0,37,0.00,,---,0.00,0.00,VWS V14.00,2013-07-26 10:00:00,
2013-07-26 06:03:00,76.9,48.7,29.97,WSW,254,0.0,0.0,37,0.00,,---,0.00,0.00,VWS V14.00,2013-07-26 10:03:00,
2013-07-26 06:08:00,76.9,48.7,29.97,WSW,254,0.0,0.0,37,0.00,,---,0.00,0.00,VWS V14.00,2013-07-26 10:08:00,
2013-07-26 06:13:00,76.8,48.6,29.97,WSW,254,0.0,0.0,37,0.00,,---,0.00,0.00,VWS V14.00,2013-07-26 10:13:00,
2013-07-26 06:18:00,76.8,48.6,29.97,WSW,254,0.0,0.0,37,0.00,,---,0.00,0.00,VWS V14.00,2013-07-26 10:18:00,
2013-07-26 06:23:00,76.7,48.5,29.97,WSW,254,0.0,0.0,37,0.00,,---,0.00,0.00,VWS V14.00,2013-07-26 10:23:00,
2013-07-26 06:30:00,76.7,48.5,29.97,WSW,254,0.0,0.0,37,0.00,,---,0.00,0.00,VWS V14.00,2013-07-26 10:30:00,
2013-07-26 06:33:00,76.6,48.4,29.97,WSW,254,0.0,0.0,37,0.00,,---,0.00,0.00,VWS V14.00,2013-07-26 10:33:00,
2013-07-26 06:38:00,76.5,48.3,29.97,WSW,254,0.0,0.0,37,0.00,,---,0.00,0.00,VWS V14.00,2013-07-26 10:38:00,
2013-07-26 06:43:00,76.5,48.3,29.98,WSW,254,0.0,0.0,37,0.00,,---,0.00,0.00,VWS V14.00,2013-07-26 10:43:00,
2013-07-26 06:48:00,76.4,48.2,29.98,WSW,254,0.0,0.0,37,0.00,,---,0.00,5.00,VWS V14.00,2013-07-26 10:48:00,
2013-07-26 06:53:00,76.3,48.1,29.98,WSW,254,0.0,0.0,37,0.00,,---,0.00,9.00,VWS V14.00,2013-07-26 10:53:00,
2013-07-26 06:58:00,76.3,48.1,29.98,WSW,254,0.0,0.0,37,0.00,,---,0.00,12.00,VWS V14.00,2013-07-26 10:58:00,
2013-07-26 07:00:00,76.3,48.1,29.98,WSW,254,0.0,0.0,37,0.00,,---,0.00,11.00,VWS V14.00,2013-07-26 11:00:00,
2013-07-26 07:03:00,76.3,47.4,29.98,WSW,254,0.0,0.0,36,0.00,,---,0.00,16.00,VWS V14.00,2013-07-26 11:03:00,
2013-07-26 07:08:00,76.3,47.4,29.98,WSW,254,0.0,0.0,36,0.00,,---,0.00,19.00,VWS V14.00,2013-07-26 11:08:00,
2013-07-26 07:13:00,76.3,47.4,29.99,WSW,254,0.0,0.0,36,0.00,,---,0.00,26.00,VWS V14.00,2013-07-26 11:13:00,
2013-07-26 07:18:00,76.4,47.5,29.98,WSW,254,0.0,0.0,36,0.00,,---,0.00,35.00,VWS V14.00,2013-07-26 11:18:00,
2013-07-26 07:23:00,76.5,47.6,29.98,WSW,254,0.0,0.0,36,0.00,,---,0.00,40.00,VWS V14.00,2013-07-26 11:23:00,
2013-07-26 07:28:00,76.6,46.9,29.99,WSW,254,0.0,0.0,35,0.00,,---,0.00,44.00,VWS V14.00,2013-07-26 11:28:00,
2013-07-26 07:30:00,76.6,46.9,29.99,WSW,254,0.0,0.0,35,0.00,,---,0.00,42.00,VWS V14.00,2013-07-26 11:30:00,
2013-07-26 07:33:00,76.8,47.1,29.99,WSW,254,0.0,0.0,35,0.00,,---,0.00,49.00,VWS V14.00,2013-07-26 11:33:00,
2013-07-26 07:38:00,76.9,47.2,29.99,WSW,254,0.0,0.0,35,0.00,,---,0.00,62.00,VWS V14.00,2013-07-26 11:38:00,
2013-07-26 07:43:00,77.1,46.6,29.99,WSW,254,0.0,0.0,34,0.00,,---,0.00,69.00,VWS V14.00,2013-07-26 11:43:00,
2013-07-26 07:48:00,77.4,46.9,29.99,WSW,254,0.0,0.0,34,0.00,,---,0.00,83.00,VWS V14.00,2013-07-26 11:48:00,
2013-07-26 07:53:00,77.6,47.0,29.99,WSW,254,0.0,0.0,34,0.00,,---,0.00,97.00,VWS V14.00,2013-07-26 11:53:00,
2013-07-26 07:58:00,77.9,47.3,29.99,WSW,250,0.0,0.0,34,0.00,,---,0.00,111.00,VWS V14.00,2013-07-26 11:58:00,
2013-07-26 08:00:00,77.8,47.2,29.99,WSW,250,0.0,0.0,34,0.00,,---,0.00,104.00,VWS V14.00,2013-07-26 12:00:00,
2013-07-26 08:03:00,78.2,46.8,29.99,WSW,250,0.0,0.0,33,0.00,,---,0.00,123.00,VWS V14.00,2013-07-26 12:03:00,
2013-07-26 08:08:00,78.4,47.0,29.99,WSW,250,0.0,0.0,33,0.00,,---,0.00,139.00,VWS V14.00,2013-07-26 12:08:00,
2013-07-26 08:13:00,78.6,47.1,30.00,WSW,253,0.0,0.0,33,0.00,,---,0.00,156.00,VWS V14.00,2013-07-26 12:13:00,
2013-07-26 08:18:00,78.7,47.2,29.99,WSW,253,0.0,0.0,33,0.00,,---,0.00,144.00,VWS V14.00,2013-07-26 12:18:00,
2013-07-26 08:23:00,78.8,47.3,30.00,WSW,253,0.0,1.0,33,0.00,,---,0.00,178.00,VWS V14.00,2013-07-26 12:23:00,
2013-07-26 08:28:00,79.0,47.5,30.00,WSW,252,0.0,0.0,33,0.00,,---,0.00,181.00,VWS V14.00,2013-07-26 12:28:00,
2013-07-26 08:30:00,79.0,47.5,30.00,WSW,254,0.0,1.0,33,0.00,,---,0.00,192.00,VWS V14.00,2013-07-26 12:30:00,
2013-07-26 08:33:00,79.2,47.7,30.00,WSW,252,0.0,0.0,33,0.00,,---,0.00,153.00,VWS V14.00,2013-07-26 12:33:00,
2013-07-26 08:38:00,79.4,47.8,30.00,SW,235,0.0,0.0,33,0.00,,---,0.00,232.00,VWS V14.00,2013-07-26 12:38:00,
2013-07-26 08:43:00,79.6,48.0,30.00,West,261,0.0,1.0,33,0.00,,---,0.00,199.00,VWS V14.00,2013-07-26 12:43:00,
2013-07-26 08:48:00,79.7,48.9,30.00,West,264,0.0,1.0,34,0.00,,---,0.00,299.00,VWS V14.00,2013-07-26 12:48:00,
2013-07-26 08:53:00,79.8,49.7,30.00,NW,309,0.0,1.0,35,0.00,,---,0.00,241.00,VWS V14.00,2013-07-26 12:53:00,
2013-07-26 08:58:00,80.2,50.8,30.00,West,273,0.0,0.0,36,0.00,,---,0.00,230.00,VWS V14.00,2013-07-26 12:58:00,
2013-07-26 09:00:00,80.0,49.9,30.00,West,273,0.0,1.0,35,0.00,,---,0.00,218.00,VWS V14.00,2013-07-26 13:00:00,
2013-07-26 09:03:00,80.5,52.6,30.00,SSW,196,0.0,1.0,38,0.00,,---,0.00,244.00,VWS V14.00,2013-07-26 13:03:00,
2013-07-26 09:08:00,80.9,54.3,29.99,West,261,0.0,1.0,40,0.00,,---,0.00,271.00,VWS V14.00,2013-07-26 13:08:00,
2013-07-26 09:13:00,81.3,56.7,29.99,SW,230,0.0,1.0,43,0.00,,---,0.00,302.00,VWS V14.00,2013-07-26 13:13:00,
2013-07-26 09:18:00,81.7,60.1,30.00,WNW,295,0.0,1.0,48,0.00,,---,0.00,359.00,VWS V14.00,2013-07-26 13:18:00,
2013-07-26 09:23:00,82.2,62.3,30.00,SW,225,0.0,9.0,51,0.00,,---,0.00,323.00,VWS V14.00,2013-07-26 13:23:00,
2013-07-26 09:28:00,82.6,64.8,29.99,WNW,288,5.0,9.0,55,0.00,,---,0.00,339.00,VWS V14.00,2013-07-26 13:28:00,
2013-07-26 09:30:00,82.4,64.1,30.00,WNW,301,2.0,10.0,54,0.00,,---,0.00,355.00,VWS V14.00,2013-07-26 13:30:00,
2013-07-26 09:33:00,82.9,66.1,29.99,West,277,0.0,9.0,57,0.00,,---,0.00,357.00,VWS V14.00,2013-07-26 13:33:00,
2013-07-26 09:43:00,83.5,67.7,29.99,South,186,0.0,9.0,59,0.00,,---,0.00,404.00,VWS V14.00,2013-07-26 13:43:00,
2013-07-26 09:48:00,83.8,68.4,29.99,NW,306,0.0,9.0,60,0.00,,---,0.00,432.00,VWS V14.00,2013-07-26 13:48:00,
2013-07-26 09:53:00,84.0,68.6,29.99,West,261,4.0,9.0,60,0.00,,---,0.00,445.00,VWS V14.00,2013-07-26 13:53:00,
2013-07-26 09:58:00,84.3,69.4,29.99,WSW,243,0.0,1.0,61,0.00,,---,0.00,418.00,VWS V14.00,2013-07-26 13:58:00,
2013-07-26 10:00:00,84.2,69.3,29.99,WSW,248,0.0,9.0,61,0.00,,---,0.00,427.00,VWS V14.00,2013-07-26 14:00:00,
2013-07-26 10:03:00,84.5,69.6,29.99,WSW,243,3.0,6.0,61,0.00,,---,0.00,424.00,VWS V14.00,2013-07-26 14:03:00,
2013-07-26 10:08:00,84.7,70.2,29.99,West,273,4.0,6.0,62,0.00,,---,0.00,452.00,VWS V14.00,2013-07-26 14:08:00,
2013-07-26 10:13:00,84.9,70.9,30.00,WSW,248,0.0,6.0,63,0.00,,---,0.00,499.00,VWS V14.00,2013-07-26 14:13:00,
2013-07-26 10:18:00,85.2,71.2,30.00,NNW,340,0.0,6.0,63,0.00,,---,0.00,490.00,VWS V14.00,2013-07-26 14:18:00,
2013-07-26 10:23:00,85.6,71.6,30.00,SW,229,6.0,7.0,63,0.00,,---,0.00,548.00,VWS V14.00,2013-07-26 14:23:00,
2013-07-26 10:28:00,85.8,72.2,30.00,WSW,252,0.0,4.0,64,0.00,,---,0.00,543.00,VWS V14.00,2013-07-26 14:28:00,
2013-07-26 10:30:00,85.7,72.1,30.00,NNW,339,0.0,7.0,64,0.00,,---,0.00,443.00,VWS V14.00,2013-07-26 14:30:00,
2013-07-26 10:33:00,86.2,72.6,30.00,WNW,289,0.0,4.0,64,0.00,,---,0.00,466.00,VWS V14.00,2013-07-26 14:33:00,
2013-07-26 10:38:00,86.4,72.8,30.00,NW,315,0.0,4.0,64,0.00,,---,0.00,353.00,VWS V14.00,2013-07-26 14:38:00,
2013-07-26 10:43:00,86.5,73.3,30.00,WSW,247,1.0,10.0,65,0.00,,---,0.00,455.00,VWS V14.00,2013-07-26 14:43:00,
2013-07-26 10:49:00,86.6,73.4,30.00,WSW,254,0.0,10.0,65,0.00,,---,0.00,547.00,VWS V14.00,2013-07-26 14:49:00,
2013-07-26 10:54:00,86.7,73.5,30.00,West,261,0.0,10.0,65,0.00,,---,0.00,601.00,VWS V14.00,2013-07-26 14:54:00,
2013-07-26 10:59:00,86.9,73.7,30.00,West,271,0.0,1.0,65,0.00,,---,0.00,566.00,VWS V14.00,2013-07-26 14:59:00,
2013-07-26 11:00:00,86.8,73.6,30.00,WNW,289,0.0,10.0,65,0.00,,---,0.00,577.00,VWS V14.00,2013-07-26 15:00:00,
2013-07-26 11:04:00,87.0,73.8,30.00,WSW,249,0.0,6.0,65,0.00,,---,0.00,605.00,VWS V14.00,2013-07-26 15:04:00,
2013-07-26 11:09:00,87.2,74.0,30.00,West,262,4.0,6.0,65,0.00,,---,0.00,671.00,VWS V14.00,2013-07-26 15:09:00,
2013-07-26 11:14:00,87.4,74.2,30.00,WSW,254,0.0,7.0,65,0.00,,---,0.00,568.00,VWS V14.00,2013-07-26 15:14:00,
2013-07-26 11:19:00,87.8,74.6,30.00,West,263,2.0,7.0,65,0.00,,---,0.00,508.00,VWS V14.00,2013-07-26 15:19:00,
2013-07-26 11:24:00,88.0,74.8,30.00,WNW,293,0.0,7.0,65,0.00,,---,0.00,621.00,VWS V14.00,2013-07-26 15:24:00,
2013-07-26 11:29:00,88.3,74.6,29.99,West,265,0.0,2.0,64,0.00,,---,0.00,729.00,VWS V14.00,2013-07-26 15:29:00,
2013-07-26 11:30:00,88.1,74.9,30.00,SSW,202,2.0,7.0,65,0.00,,---,0.00,578.00,VWS V14.00,2013-07-26 15:30:00,
2013-07-26 11:34:00,88.3,74.6,29.99,WSW,253,3.0,7.0,64,0.00,,---,0.00,826.00,VWS V14.00,2013-07-26 15:34:00,
2013-07-26 11:39:00,88.8,75.1,29.99,WSW,237,0.0,7.0,64,0.00,,---,0.00,761.00,VWS V14.00,2013-07-26 15:39:00,
2013-07-26 11:44:00,89.2,75.4,29.99,SW,234,0.0,7.0,64,0.00,,---,0.00,744.00,VWS V14.00,2013-07-26 15:44:00,
2013-07-26 11:49:00,89.7,75.9,29.99,WSW,244,0.0,7.0,64,0.00,,---,0.00,633.00,VWS V14.00,2013-07-26 15:49:00,
2013-07-26 11:54:00,90.0,75.7,29.99,SW,232,0.0,7.0,63,0.00,,---,0.00,773.00,VWS V14.00,2013-07-26 15:54:00,
2013-07-26 11:59:00,90.2,75.9,29.99,West,268,0.0,0.0,63,0.00,,---,0.00,805.00,VWS V14.00,2013-07-26 15:59:00,
2013-07-26 12:00:00,90.1,75.8,29.99,West,266,0.0,7.0,63,0.00,,---,0.00,826.00,VWS V14.00,2013-07-26 16:00:00,
2013-07-26 12:04:00,90.4,76.1,29.99,WSW,250,0.0,0.0,63,0.00,,---,0.00,714.00,VWS V14.00,2013-07-26 16:04:00,
2013-07-26 12:09:00,90.6,76.3,29.99,West,280,0.0,1.0,63,0.00,,---,0.00,898.00,VWS V14.00,2013-07-26 16:09:00,
2013-07-26 12:14:00,90.8,76.5,29.99,West,259,0.0,6.0,63,0.00,,---,0.00,608.00,VWS V14.00,2013-07-26 16:14:00,
2013-07-26 12:19:00,90.9,76.6,29.98,WSW,242,0.0,6.0,63,0.00,,---,0.00,649.00,VWS V14.00,2013-07-26 16:19:00,
2013-07-26 12:24:00,90.9,76.6,29.99,WNW,300,0.0,8.0,63,0.00,,---,0.00,772.00,VWS V14.00,2013-07-26 16:24:00,
2013-07-26 12:29:00,90.8,76.5,29.99,SW,225,1.0,6.0,63,0.00,,---,0.00,642.00,VWS V14.00,2013-07-26 16:29:00,
2013-07-26 12:30:00,90.8,76.0,29.99,WSW,243,4.0,8.0,62,0.00,,---,0.00,717.00,VWS V14.00,2013-07-26 16:30:00,
2013-07-26 12:34:00,90.8,76.0,29.99,West,268,2.0,6.0,62,0.00,,---,0.00,566.00,VWS V14.00,2013-07-26 16:34:00,
2013-07-26 12:39:00,90.7,76.4,29.99,West,259,0.0,6.0,63,0.00,,---,0.00,649.00,VWS V14.00,2013-07-26 16:39:00,
2013-07-26 12:44:00,91.1,76.8,29.99,WSW,257,0.0,6.0,63,0.00,,---,0.00,582.00,VWS V14.00,2013-07-26 16:44:00,
2013-07-26 12:49:00,91.3,76.9,29.99,West,278,4.0,6.0,63,0.00,,---,0.00,540.00,VWS V14.00,2013-07-26 16:49:00,
2013-07-26 12:54:00,91.5,76.2,29.98,West,265,0.0,6.0,61,0.00,,---,0.00,759.00,VWS V14.00,2013-07-26 16:54:00,
2013-07-26 12:59:00,91.7,76.8,29.98,SW,219,0.0,2.0,62,0.00,,---,0.00,1199.00,VWS V14.00,2013-07-26 16:59:00,
2013-07-26 13:00:00,91.6,76.7,29.98,SW,234,2.0,7.0,62,0.00,,---,0.00,872.00,VWS V14.00,2013-07-26 17:00:00,
2013-07-26 13:04:00,92.1,77.2,29.98,West,274,0.0,2.0,62,0.00,,---,0.00,1165.00,VWS V14.00,2013-07-26 17:04:00,
2013-07-26 13:09:00,93.1,77.7,29.98,West,270,0.0,2.0,61,0.00,,---,0.00,1287.00,VWS V14.00,2013-07-26 17:09:00,
2013-07-26 13:14:00,94.5,78.0,29.98,WSW,239,0.0,2.0,59,0.00,,---,0.00,1334.00,VWS V14.00,2013-07-26 17:14:00,
2013-07-26 13:19:00,95.1,75.8,29.97,SW,229,0.0,2.0,54,0.00,,---,0.00,960.00,VWS V14.00,2013-07-26 17:19:00,
2013-07-26 13:24:00,95.6,76.3,29.97,SSW,192,5.0,9.0,54,0.00,,---,0.00,1236.00,VWS V14.00,2013-07-26 17:24:00,
2013-07-26 13:29:00,95.5,76.8,29.97,SE,140,6.0,6.0,55,0.00,,---,0.00,1132.00,VWS V14.00,2013-07-26 17:29:00,
2013-07-26 13:30:00,95.6,76.9,29.97,West,268,0.0,9.0,55,0.00,,---,0.00,1116.00,VWS V14.00,2013-07-26 17:30:00,
2013-07-26 13:34:00,95.5,76.8,29.97,SSE,158,1.0,6.0,55,0.00,,---,0.00,1044.00,VWS V14.00,2013-07-26 17:34:00,
2013-07-26 13:39:00,95.6,76.3,29.97,WSW,237,0.0,6.0,54,0.00,,---,0.00,835.00,VWS V14.00,2013-07-26 17:39:00,
2013-07-26 13:44:00,95.8,75.9,29.97,WSW,258,0.0,6.0,53,0.00,,---,0.00,803.00,VWS V14.00,2013-07-26 17:44:00,
2013-07-26 13:49:00,95.6,75.8,29.97,WSW,250,0.0,6.0,53,0.00,,---,0.00,645.00,VWS V14.00,2013-07-26 17:49:00,
2013-07-26 13:54:00,95.2,74.2,29.97,WSW,252,0.0,6.0,51,0.00,,---,0.00,596.00,VWS V14.00,2013-07-26 17:54:00,
2013-07-26 13:59:00,95.0,74.1,29.97,NW,324,0.0,2.0,51,0.00,,---,0.00,795.00,VWS V14.00,2013-07-26 17:59:00,
2013-07-26 14:00:00,95.1,74.7,29.97,SW,229,2.0,6.0,52,0.00,,---,0.00,547.00,VWS V14.00,2013-07-26 18:00:00,
2013-07-26 14:04:00,94.9,75.1,29.97,West,269,6.0,6.0,53,0.00,,---,0.00,652.00,VWS V14.00,2013-07-26 18:04:00,
2013-07-26 14:09:00,94.6,75.4,29.96,WSW,257,0.0,6.0,54,0.00,,---,0.00,503.00,VWS V14.00,2013-07-26 18:09:00,
2013-07-26 14:14:00,94.6,77.0,29.96,SE,142,0.0,6.0,57,0.00,,---,0.00,512.00,VWS V14.00,2013-07-26 18:14:00,
2013-07-26 14:19:00,94.5,78.5,29.96,SSE,150,0.0,6.0,60,0.00,,---,0.00,752.00,VWS V14.00,2013-07-26 18:19:00,
2013-07-26 14:24:00,93.9,78.4,29.96,SSE,158,0.0,7.0,61,0.00,,---,0.00,425.00,VWS V14.00,2013-07-26 18:24:00,
2013-07-26 14:29:00,93.4,77.9,29.95,ESE,112,2.0,6.0,61,0.00,,---,0.00,348.00,VWS V14.00,2013-07-26 18:29:00,
2013-07-26 14:30:00,93.7,78.2,29.95,SSE,148,0.0,7.0,61,0.00,,---,0.00,362.00,VWS V14.00,2013-07-26 18:30:00,
2013-07-26 14:34:00,92.8,77.9,29.95,SSE,160,0.0,8.0,62,0.00,,---,0.00,385.00,VWS V14.00,2013-07-26 18:34:00,
2013-07-26 14:39:00,92.1,77.7,29.95,SE,131,1.0,8.0,63,0.00,,---,0.00,492.00,VWS V14.00,2013-07-26 18:39:00,
2013-07-26 14:44:00,91.7,77.3,29.95,ESE,121,2.0,9.0,63,0.00,,---,0.00,828.00,VWS V14.00,2013-07-26 18:44:00,
2013-07-26 14:49:00,91.6,77.7,29.95,SE,131,0.0,9.0,64,0.00,,---,0.00,487.00,VWS V14.00,2013-07-26 18:49:00,
2013-07-26 14:54:00,91.4,77.0,29.94,SSE,162,1.0,9.0,63,0.00,,---,0.00,480.00,VWS V14.00,2013-07-26 18:54:00,
2013-07-26 14:59:00,91.1,77.2,29.94,ESE,122,5.0,6.0,64,0.00,,---,0.00,381.00,VWS V14.00,2013-07-26 18:59:00,
2013-07-26 15:00:00,91.2,76.8,29.94,SE,138,3.0,9.0,63,0.00,,---,0.00,378.00,VWS V14.00,2013-07-26 19:00:00,
2013-07-26 15:04:00,91.0,77.1,29.94,SE,137,4.0,9.0,64,0.00,,---,0.00,694.00,VWS V14.00,2013-07-26 19:04:00,
2013-07-26 15:09:00,90.8,76.9,29.94,ESE,115,5.0,11.0,64,0.00,,---,0.00,489.00,VWS V14.00,2013-07-26 19:09:00,
2013-07-26 15:14:00,90.6,76.8,29.94,East,80,2.0,11.0,64,0.00,,---,0.00,448.00,VWS V14.00,2013-07-26 19:14:00,
2013-07-26 15:19:00,90.7,76.8,29.94,SE,125,4.0,11.0,64,0.00,,---,0.00,784.00,VWS V14.00,2013-07-26 19:19:00,
2013-07-26 15:24:00,91.0,77.1,29.94,SSE,150,6.0,11.0,64,0.00,,---,0.00,679.00,VWS V14.00,2013-07-26 19:24:00,
2013-07-26 15:29:00,91.1,77.2,29.94,SE,132,6.0,7.0,64,0.00,,---,0.00,401.00,VWS V14.00,2013-07-26 19:29:00,
2013-07-26 15:30:00,91.1,77.2,29.94,SSW,207,3.0,11.0,64,0.00,,---,0.00,410.00,VWS V14.00,2013-07-26 19:30:00,
2013-07-26 15:34:00,91.1,77.2,29.93,South,173,1.0,11.0,64,0.00,,---,0.00,480.00,VWS V14.00,2013-07-26 19:34:00,
2013-07-26 15:39:00,91.2,77.3,29.93,SSE,148,7.0,11.0,64,0.00,,---,0.00,248.00,VWS V14.00,2013-07-26 19:39:00,
2013-07-26 15:44:00,90.8,76.9,29.93,SSW,198,9.0,11.0,64,0.00,,---,0.00,306.00,VWS V14.00,2013-07-26 19:44:00,
2013-07-26 15:49:00,90.5,76.7,29.93,SSW,208,2.0,11.0,64,0.00,,---,0.00,308.00,VWS V14.00,2013-07-26 19:49:00,
2013-07-26 15:54:00,90.4,76.6,29.93,South,187,0.0,11.0,64,0.00,,---,0.00,441.00,VWS V14.00,2013-07-26 19:54:00,
2013-07-26 15:59:00,90.8,76.9,29.93,SSW,201,0.0,5.0,64,0.00,,---,0.00,401.00,VWS V14.00,2013-07-26 19:59:00,
2013-07-26 16:00:00,90.5,76.7,29.93,SSE,165,0.0,11.0,64,0.00,,---,0.00,657.00,VWS V14.00,2013-07-26 20:00:00,
2013-07-26 16:04:00,91.1,77.2,29.92,SSW,202,0.0,5.0,64,0.00,,---,0.00,529.00,VWS V14.00,2013-07-26 20:04:00,
2013-07-26 16:09:00,91.3,77.4,29.93,WSW,238,0.0,5.0,64,0.00,,---,0.00,327.00,VWS V14.00,2013-07-26 20:09:00,
2013-07-26 16:14:00,91.4,77.5,29.92,SW,221,0.0,5.0,64,0.00,,---,0.00,775.00,VWS V14.00,2013-07-26 20:14:00,
2013-07-26 16:19:00,91.7,77.3,29.92,WSW,242,0.0,7.0,63,0.00,,---,0.00,490.00,VWS V14.00,2013-07-26 20:19:00,
2013-07-26 16:25:00,92.3,77.4,29.92,South,175,2.0,7.0,62,0.00,,---,0.00,580.00,VWS V14.00,2013-07-26 20:25:00,
2013-07-26 16:30:00,92.6,77.7,29.92,SW,229,1.0,10.0,62,0.00,,---,0.00,450.00,VWS V14.00,2013-07-26 20:30:00,
2013-07-26 16:35:00,92.5,78.1,29.92,WSW,242,6.0,10.0,63,0.00,,---,0.00,506.00,VWS V14.00,2013-07-26 20:35:00,
2013-07-26 16:40:00,92.4,77.5,29.92,WSW,251,7.0,11.0,62,0.00,,---,0.00,459.00,VWS V14.00,2013-07-26 20:40:00,
2013-07-26 16:45:00,92.3,77.4,29.92,West,271,1.0,11.0,62,0.00,,---,0.00,404.00,VWS V14.00,2013-07-26 20:45:00,
2013-07-26 16:50:00,92.3,77.4,29.91,WSW,238,0.0,11.0,62,0.00,,---,0.00,387.00,VWS V14.00,2013-07-26 20:50:00,
2013-07-26 16:55:00,92.1,77.2,29.92,WSW,254,1.0,11.0,62,0.00,,---,0.00,410.00,VWS V14.00,2013-07-26 20:55:00,
2013-07-26 17:00:00,92.0,77.6,29.92,WSW,238,3.0,4.0,63,0.00,,---,0.00,355.00,VWS V14.00,2013-07-26 21:00:00,
2013-07-26 17:05:00,91.7,76.8,29.92,SW,236,3.0,13.0,62,0.00,,---,0.00,311.00,VWS V14.00,2013-07-26 21:05:00,
2013-07-26 17:10:00,91.5,77.1,29.92,WNW,295,2.0,13.0,63,0.00,,---,0.00,315.00,VWS V14.00,2013-07-26 21:10:00,
2013-07-26 17:15:00,91.2,76.8,29.92,WSW,250,6.0,13.0,63,0.00,,---,0.00,308.00,VWS V14.00,2013-07-26 21:15:00,
2013-07-26 17:20:00,91.0,76.7,29.92,WSW,238,0.0,13.0,63,0.00,,---,0.00,348.00,VWS V14.00,2013-07-26 21:20:00,
2013-07-26 17:25:00,90.7,76.4,29.91,WSW,238,0.0,13.0,63,0.00,,---,0.00,260.00,VWS V14.00,2013-07-26 21:25:00,
2013-07-26 17:30:00,90.6,76.8,29.91,SW,228,5.0,10.0,64,0.00,,---,0.00,232.00,VWS V14.00,2013-07-26 21:30:00,
2013-07-26 17:35:00,90.5,76.7,29.91,SW,236,6.0,10.0,64,0.00,,---,0.00,318.00,VWS V14.00,2013-07-26 21:35:00,
2013-07-26 17:40:00,90.3,76.5,29.91,West,271,0.0,12.0,64,0.00,,---,0.00,283.00,VWS V14.00,2013-07-26 21:40:00,
2013-07-26 17:45:00,90.4,76.6,29.91,SW,217,0.0,13.0,64,0.00,,---,0.00,327.00,VWS V14.00,2013-07-26 21:45:00,
2013-07-26 17:50:00,90.3,76.5,29.92,West,267,3.0,13.0,64,0.00,,---,0.00,323.00,VWS V14.00,2013-07-26 21:50:00,
2013-07-26 17:55:00,90.2,76.4,29.91,WSW,244,4.0,13.0,64,0.00,,---,0.00,429.00,VWS V14.00,2013-07-26 21:55:00,
2013-07-26 18:00:00,90.4,76.6,29.91,WSW,255,0.0,11.0,64,0.00,,---,0.00,512.00,VWS V14.00,2013-07-26 22:00:00,
2013-07-26 18:05:00,90.4,76.1,29.91,SSW,207,1.0,11.0,63,0.00,,---,0.00,218.00,VWS V14.00,2013-07-26 22:05:00,
2013-07-26 18:10:00,90.3,76.5,29.92,West,273,4.0,11.0,64,0.00,,---,0.00,510.00,VWS V14.00,2013-07-26 22:10:00,
2013-07-26 18:15:00,90.4,76.6,29.92,West,263,3.0,11.0,64,0.00,,---,0.00,176.00,VWS V14.00,2013-07-26 22:15:00,
2013-07-26 18:20:00,90.2,76.4,29.91,West,267,0.0,11.0,64,0.00,,---,0.00,197.00,VWS V14.00,2013-07-26 22:20:00,
2013-07-26 18:25:00,90.0,76.2,29.92,SW,224,13.0,13.0,64,0.00,,---,0.00,227.00,VWS V14.00,2013-07-26 22:25:00,
2013-07-26 18:30:00,89.9,76.1,29.91,SW,234,3.0,10.0,64,0.00,,---,0.00,207.00,VWS V14.00,2013-07-26 22:30:00,
2013-07-26 18:35:00,89.9,76.1,29.91,WNW,300,0.0,10.0,64,0.00,,---,0.00,211.00,VWS V14.00,2013-07-26 22:35:00,
2013-07-26 18:40:00,89.7,75.9,29.91,NW,306,0.0,13.0,64,0.00,,---,0.00,134.00,VWS V14.00,2013-07-26 22:40:00,
2013-07-26 18:45:00,89.5,75.7,29.92,WNW,294,0.0,13.0,64,0.00,,---,0.00,104.00,VWS V14.00,2013-07-26 22:45:00,
2013-07-26 18:50:00,89.2,75.4,29.92,WSW,243,1.0,13.0,64,0.00,,---,0.00,91.00,VWS V14.00,2013-07-26 22:50:00,
2013-07-26 18:55:00,89.0,75.2,29.93,West,259,0.0,13.0,64,0.00,,---,0.00,88.00,VWS V14.00,2013-07-26 22:55:00,
2013-07-26 19:00:00,88.8,75.1,29.94,West,267,2.0,10.0,64,0.00,,---,0.00,72.00,VWS V14.00,2013-07-26 23:00:00,
2013-07-26 19:05:00,88.5,75.2,29.93,WSW,246,0.0,10.0,65,0.00,,---,0.00,51.00,VWS V14.00,2013-07-26 23:05:00,
2013-07-26 19:10:00,88.3,75.1,29.93,West,269,0.0,10.0,65,0.00,,---,0.00,39.00,VWS V14.00,2013-07-26 23:10:00,
2013-07-26 19:15:00,88.1,74.9,29.92,SW,233,0.0,10.0,65,0.00,,---,0.00,33.00,VWS V14.00,2013-07-26 23:15:00,
2013-07-26 19:20:00,87.9,74.7,29.92,WSW,255,1.0,10.0,65,0.00,,---,0.00,40.00,VWS V14.00,2013-07-26 23:20:00,
2013-07-26 19:25:00,87.6,74.4,29.92,SSW,203,5.0,10.0,65,0.00,,---,0.00,47.00,VWS V14.00,2013-07-26 23:25:00,
2013-07-26 19:30:00,87.4,74.2,29.93,WNW,300,0.0,11.0,65,0.00,,---,0.00,47.00,VWS V14.00,2013-07-26 23:30:00,
2013-07-26 19:35:00,87.3,74.1,29.94,SW,215,6.0,11.0,65,0.00,,---,0.00,44.00,VWS V14.00,2013-07-26 23:35:00,
2013-07-26 19:40:00,87.2,74.0,29.95,WNW,291,2.0,11.0,65,0.00,,---,0.00,44.00,VWS V14.00,2013-07-26 23:40:00,
2013-07-26 19:45:00,87.1,73.9,29.95,West,269,0.0,11.0,65,0.00,,---,0.00,42.00,VWS V14.00,2013-07-26 23:45:00,
2013-07-26 19:50:00,87.1,73.9,29.96,NW,304,0.0,11.0,65,0.00,,---,0.00,28.00,VWS V14.00,2013-07-26 23:50:00,
2013-07-26 19:55:00,87.0,73.8,29.95,NW,317,1.0,11.0,65,0.00,,---,0.00,19.00,VWS V14.00,2013-07-26 23:55:00,
2013-07-26 20:00:00,86.8,73.6,29.94,West,261,1.0,6.0,65,0.00,,---,0.00,12.00,VWS V14.00,2013-07-27 00:00:00,
2013-07-26 20:05:00,86.6,73.4,29.94,West,263,0.0,6.0,65,0.00,,---,0.00,9.00,VWS V14.00,2013-07-27 00:05:00,
2013-07-26 20:10:00,86.5,73.3,29.94,West,274,1.0,6.0,65,0.00,,---,0.00,5.00,VWS V14.00,2013-07-27 00:10:00,
2013-07-26 20:15:00,86.3,73.2,29.94,WSW,248,3.0,10.0,65,0.00,,---,0.00,0.00,VWS V14.00,2013-07-27 00:15:00,
2013-07-26 20:20:00,86.1,72.5,29.94,NNW,335,2.0,10.0,64,0.00,,---,0.00,0.00,VWS V14.00,2013-07-27 00:20:00,
2013-07-26 20:25:00,86.0,72.4,29.95,WNW,286,0.0,10.0,64,0.00,,---,0.00,0.00,VWS V14.00,2013-07-27 00:25:00,
2013-07-26 20:30:00,85.8,72.2,29.95,NW,308,0.0,11.0,64,0.00,,---,0.00,0.00,VWS V14.00,2013-07-27 00:30:00,
2013-07-26 20:35:00,85.7,72.1,29.96,WNW,294,0.0,11.0,64,0.00,,---,0.00,0.00,VWS V14.00,2013-07-27 00:35:00,
2013-07-26 20:40:00,85.7,72.1,29.95,WSW,242,0.0,11.0,64,0.00,,---,0.00,0.00,VWS V14.00,2013-07-27 00:40:00,
2013-07-26 20:45:00,85.6,72.0,29.95,WSW,244,0.0,11.0,64,0.00,,---,0.00,0.00,VWS V14.00,2013-07-27 00:45:00,
2013-07-26 20:50:00,85.4,71.8,29.95,WSW,244,0.0,11.0,64,0.00,,---,0.00,0.00,VWS V14.00,2013-07-27 00:50:00,
2013-07-26 20:55:00,84.8,71.7,29.96,NNW,331,0.0,11.0,65,0.00,,---,0.00,0.00,VWS V14.00,2013-07-27 00:55:00,
2013-07-26 21:00:00,84.3,71.3,29.96,NNW,332,0.0,0.0,65,0.00,,---,0.00,0.00,VWS V14.00,2013-07-27 01:00:00,
2013-07-26 21:05:00,84.0,70.5,29.96,NW,321,0.0,0.0,64,0.00,,---,0.00,0.00,VWS V14.00,2013-07-27 01:05:00,
2013-07-26 21:10:00,83.8,70.3,29.96,NW,321,0.0,0.0,64,0.00,,---,0.00,0.00,VWS V14.00,2013-07-27 01:10:00,
2013-07-26 21:15:00,83.7,70.2,29.97,NW,321,0.0,0.0,64,0.00,,---,0.00,0.00,VWS V14.00,2013-07-27 01:15:00,
2013-07-26 21:20:00,83.6,70.1,29.97,NW,321,0.0,0.0,64,0.00,,---,0.00,0.00,VWS V14.00,2013-07-27 01:20:00,
2013-07-26 21:26:00,83.4,69.9,29.97,NW,321,0.0,0.0,64,0.00,,---,0.00,0.00,VWS V14.00,2013-07-27 01:26:00,
2013-07-26 21:30:00,83.4,69.9,29.97,NW,321,0.0,0.0,64,0.00,,---,0.00,0.00,VWS V14.00,2013-07-27 01:30:00,
2013-07-26 21:31:00,83.3,69.9,29.97,NW,321,0.0,0.0,64,0.00,,---,0.00,0.00,VWS V14.00,2013-07-27 01:31:00,
2013-07-26 21:36:00,83.1,69.2,29.97,NW,321,0.0,0.0,63,0.00,,---,0.00,0.00,VWS V14.00,2013-07-27 01:36:00,
2013-07-26 21:41:00,83.0,69.1,29.97,NW,321,0.0,0.0,63,0.00,,---,0.00,0.00,VWS V14.00,2013-07-27 01:41:00,
2013-07-26 21:46:00,82.8,68.9,29.97,NW,321,0.0,0.0,63,0.00,,---,0.00,0.00,VWS V14.00,2013-07-27 01:46:00,
2013-07-26 21:51:00,82.6,68.7,29.97,NW,321,0.0,0.0,63,0.00,,---,0.00,0.00,VWS V14.00,2013-07-27 01:51:00,
2013-07-26 21:56:00,82.4,68.6,29.98,NW,321,0.0,0.0,63,0.00,,---,0.00,0.00,VWS V14.00,2013-07-27 01:56:00,
2013-07-26 22:00:00,82.3,68.5,29.98,NW,321,0.0,0.0,63,0.00,,---,0.00,0.00,VWS V14.00,2013-07-27 02:00:00,
2013-07-26 22:01:00,82.2,68.4,29.98,NW,321,0.0,0.0,63,0.00,,---,0.00,0.00,VWS V14.00,2013-07-27 02:01:00,
2013-07-26 22:06:00,82.1,68.3,29.97,NW,321,0.0,0.0,63,0.00,,---,0.00,0.00,VWS V14.00,2013-07-27 02:06:00,
2013-07-26 22:11:00,82.0,67.7,29.98,NW,321,0.0,0.0,62,0.00,,---,0.00,0.00,VWS V14.00,2013-07-27 02:11:00,
2013-07-26 22:16:00,81.9,67.6,29.97,NW,321,0.0,0.0,62,0.00,,---,0.00,0.00,VWS V14.00,2013-07-27 02:16:00,
2013-07-26 22:21:00,81.8,67.5,29.98,NW,321,0.0,0.0,62,0.00,,---,0.00,0.00,VWS V14.00,2013-07-27 02:21:00,
2013-07-26 22:26:00,81.7,67.4,29.97,NW,321,0.0,0.0,62,0.00,,---,0.00,0.00,VWS V14.00,2013-07-27 02:26:00,
2013-07-26 22:30:00,81.6,67.3,29.97,NW,321,0.0,0.0,62,0.00,,---,0.00,0.00,VWS V14.00,2013-07-27 02:30:00,
2013-07-26 22:31:00,81.6,67.3,29.97,NW,321,0.0,0.0,62,0.00,,---,0.00,0.00,VWS V14.00,2013-07-27 02:31:00,
2013-07-26 22:36:00,81.5,66.8,29.97,NW,321,0.0,0.0,61,0.00,,---,0.00,0.00,VWS V14.00,2013-07-27 02:36:00,
2013-07-26 22:41:00,81.4,66.7,29.97,NW,321,0.0,0.0,61,0.00,,---,0.00,0.00,VWS V14.00,2013-07-27 02:41:00,
2013-07-26 22:46:00,81.3,66.6,29.97,NW,321,0.0,0.0,61,0.00,,---,0.00,0.00,VWS V14.00,2013-07-27 02:46:00,
2013-07-26 22:51:00,81.2,66.5,29.97,NW,321,0.0,0.0,61,0.00,,---,0.00,0.00,VWS V14.00,2013-07-27 02:51:00,
2013-07-26 22:56:00,81.1,65.9,29.97,NW,321,0.0,0.0,60,0.00,,---,0.00,0.00,VWS V14.00,2013-07-27 02:56:00,
2013-07-26 23:00:00,81.1,65.9,29.97,NW,321,0.0,0.0,60,0.00,,---,0.00,0.00,VWS V14.00,2013-07-27 03:00:00,
2013-07-26 23:01:00,81.1,65.9,29.97,NW,321,0.0,0.0,60,0.00,,---,0.00,0.00,VWS V14.00,2013-07-27 03:01:00,
2013-07-26 23:06:00,81.0,65.8,29.97,NW,321,0.0,0.0,60,0.00,,---,0.00,0.00,VWS V14.00,2013-07-27 03:06:00,
2013-07-26 23:16:00,80.8,65.6,29.97,NW,321,0.0,0.0,60,0.00,,---,0.00,0.00,VWS V14.00,2013-07-27 03:16:00,
2013-07-26 23:21:00,80.7,65.5,29.97,NW,321,0.0,0.0,60,0.00,,---,0.00,0.00,VWS V14.00,2013-07-27 03:21:00,
2013-07-26 23:26:00,80.7,65.1,29.98,NW,321,0.0,0.0,59,0.00,,---,0.00,0.00,VWS V14.00,2013-07-27 03:26:00,
2013-07-26 23:30:00,80.7,65.1,29.98,NW,321,0.0,0.0,59,0.00,,---,0.00,0.00,VWS V14.00,2013-07-27 03:30:00,
2013-07-26 23:31:00,80.6,65.0,29.98,NW,321,0.0,0.0,59,0.00,,---,0.00,0.00,VWS V14.00,2013-07-27 03:31:00,
2013-07-26 23:36:00,80.5,64.9,29.98,NW,321,0.0,0.0,59,0.00,,---,0.00,0.00,VWS V14.00,2013-07-27 03:36:00,
2013-07-26 23:41:00,80.4,64.3,29.98,NW,321,0.0,0.0,58,0.00,,---,0.00,0.00,VWS V14.00,2013-07-27 03:41:00,
2013-07-26 23:46:00,80.3,64.2,29.98,NW,321,0.0,0.0,58,0.00,,---,0.00,0.00,VWS V14.00,2013-07-27 03:46:00,
2013-07-26 23:51:00,80.3,63.7,29.98,NW,321,0.0,0.0,57,0.00,,---,0.00,0.00,VWS V14.00,2013-07-27 03:51:00,